Grand Junction, CO

2:42 PM MST on December 06, 2019 (GMT -0700)
Walker

Weather History for KGJT - November, 2019

Change the Weather History Date:

Monday, November 18, 2019

  Actual Average Record
Temperature  
Mean Temperature 43 °F 38 °F  
Max Temperature 58 °F 49 °F 65 °F (1973)
Min Temperature 28 °F 27 °F 11 °F (2000)
Degree Days  
Heating Degree Days 22 27  
Month to date heating degree days 421 414  
Since 1 July heating degree days 1025 862  
Cooling Degree Days 0 0  
Month to date cooling degree days 0 0  
Year to date cooling degree days 1287 1125  
Moisture  
Dew Point 17 °F    
Average Humidity 41    
Maximum Humidity 58    
Minimum Humidity 23    
Precipitation  
Precipitation 0.00 in 0.02 in 0.77 in (1953)
Month to date precipitation 0.00 0.46  
Year to date precipitation 7.14 8.56  
Snow  
Snow 0.00 in 0.00 in 4.00 in (1930)
Month to date snowfall 0.0 0.9  
Since 1 July snowfall 0.2 1.3  
Since 1 September snowfall 0.2 1.3  
Snow Depth 0.00 in    
Sea Level Pressure  
Sea Level Pressure 30.10 in    
Wind  
Wind Speed 5 mph (East)    
Max Wind Speed 10 mph    
Max Gust Speed 14 mph    
Visibility 10 miles    
Events      
T = Trace of Precipitation, MM = Missing Value Source: NWS Daily Summary

Daily Weather History Graph

Daily Weather History Graph

Search for Another Location

Airport or City:

Astronomy

Nov. 18, 2019 Rise Set
Actual Time 7:00 AM MST 4:57 PM MST
Civil Twilight 6:31 AM MST 5:26 PM MST
Nautical Twilight 5:59 AM MST 5:58 PM MST
Astronomical Twilight 5:27 AM MST 6:30 PM MST
Moon 10:46 PM MST (11/18) 12:33 PM MST (11/18)
Length of Visible Light 10h 54m
Length of Day
9h 57m
Waning Gibbous, 62% of the Moon is Illuminated
Nov 18
Waning Gibbous
Nov 19
Last Quarter
Nov 26
New
Dec 3
First Quarter
Dec 11
Full

Hourly Weather History & Observations

Time (MST) Temp. Windchill Dew Point Humidity Pressure Visibility Wind Dir Wind Speed Gust Speed Precip Events Conditions
12:53 AM 39.9 °F 35.8 °F 17.1 °F 40% 30.15 in 10.0 mi East 5.8 mph - N/A   Clear
1:53 AM 36.0 °F - 16.0 °F 44% 30.16 in 10.0 mi Calm Calm - N/A   Clear
2:53 AM 30.9 °F 25.2 °F 14.0 °F 50% 30.18 in 10.0 mi East 5.8 mph - N/A   Clear
3:53 AM 30.9 °F 26.2 °F 15.1 °F 52% 30.17 in 10.0 mi East 4.6 mph - N/A   Clear
4:53 AM 34.0 °F 26.6 °F 18.0 °F 52% 30.17 in 10.0 mi East 9.2 mph - N/A   Clear
5:53 AM 33.1 °F 28.7 °F 17.1 °F 52% 30.19 in 10.0 mi ESE 4.6 mph - N/A   Clear
6:53 AM 28.9 °F 22.8 °F 15.1 °F 56% 30.23 in 10.0 mi East 5.8 mph - N/A   Clear
8:53 AM 42.1 °F 36.6 °F 19.9 °F 41% 30.21 in 10.0 mi SE 9.2 mph - N/A   Clear
9:53 AM 45.0 °F 43.5 °F 19.9 °F 37% 30.22 in 10.0 mi Variable 3.5 mph - N/A   Clear
10:53 AM 50.0 °F - 19.9 °F 31% 30.17 in 10.0 mi Variable 3.5 mph - N/A   Clear
11:53 AM 52.0 °F - 19.9 °F 28% 30.14 in 10.0 mi Calm Calm - N/A   Clear
12:53 PM 55.9 °F - 21.0 °F 26% 30.06 in 8.0 mi Calm Calm - N/A   Clear
1:53 PM 57.9 °F - 19.9 °F 23% 30.05 in 10.0 mi West 4.6 mph - N/A   Clear
2:53 PM 57.0 °F - 21.0 °F 25% 30.06 in 10.0 mi NW 4.6 mph - N/A   Clear
3:53 PM 57.9 °F - 19.0 °F 22% 30.03 in 10.0 mi NNW 9.2 mph - N/A   Clear
4:53 PM 54.0 °F - 19.0 °F 25% 30.03 in 5.0 mi West 5.8 mph - N/A   Haze
5:53 PM 43.0 °F 41.3 °F 14.0 °F 31% 30.06 in 10.0 mi ENE 3.5 mph - N/A   Clear
6:53 PM 37.9 °F 34.4 °F 12.9 °F 36% 30.09 in 10.0 mi ENE 4.6 mph - N/A   Clear
7:53 PM 39.9 °F 35.8 °F 15.1 °F 36% 30.06 in 10.0 mi East 5.8 mph - N/A   Clear
8:53 PM 39.0 °F 34.0 °F 16.0 °F 39% 30.03 in 10.0 mi ENE 6.9 mph - N/A   Clear
9:53 PM 42.1 °F 39.2 °F 17.1 °F 37% 30.01 in 10.0 mi East 4.6 mph - N/A   Clear
10:53 PM 32.0 °F 27.5 °F 12.9 °F 45% 30.01 in 10.0 mi East 4.6 mph - N/A   Clear
11:53 PM 37.9 °F 31.5 °F 19.0 °F 47% 29.98 in 10.0 mi ESE 9.2 mph - N/A   Clear